User: anonymous   Login
Location: Unspecified
(0.0000°N, 0.0000°E)
Time: 10:55:00
(UTC+00:00)
Language:

USA 247 - Orbit

View from above orbital plane
View from above orbital plane
View from above satellite
View from above satellite

Ground track
Ground track

The orbit data is extracted from the following two-line orbital elements,

1 39462U 13072A   16043.73572208 0.00000000  00000-0  00000-0 0    08
2 39462 122.9997 183.3413 0006250 144.4030 215.5970 13.41447908    07
Epoch (UTC): 12 February 2016 17:39:26
Eccentricity: 0.0006250
inclination: 122.9997°
perigee height: 1099 km
apogee height: 1108 km
right ascension of ascending node: 183.3413°
argument of perigee: 144.4030°
revolutions per day: 13.41447908
mean anomaly at epoch: 215.5970°
orbit number at epoch: 0

The dashed part of the orbit path shows where the satellite is in the earth's shadow,  

DLR